| time (UTC) | temp F | wind direction | speed knots | gust knots | rain 1hr in | rain 24hr in | rain mn in | humidity % | barometer mb |
| 20260507084046 | 41 | 0 | 0.0 | 0.0 | 0.00 | 0.00 | 0.00 | 94 | 1013.6 |
| 20260507083546 | 41 | 0 | 0.0 | 0.0 | 0.00 | 0.00 | 0.00 | 94 | 1013.7 |
| 20260507083045 | 41 | 0 | 0.0 | 0.0 | 0.00 | 0.00 | 0.00 | 94 | 1013.7 |
| 20260507082545 | 41 | 0 | 0.0 | 0.0 | 0.00 | 0.00 | 0.00 | 94 | 1013.6 |
| 20260507082045 | 41 | 0 | 0.0 | 0.0 | 0.00 | 0.00 | 0.00 | 94 | 1013.5 |
| 20260507081544 | 41 | 18 | 0.0 | 0.9 | 0.00 | 0.00 | 0.00 | 94 | 1013.6 |
| 20260507081043 | 41 | 23 | 0.0 | 1.7 | 0.00 | 0.00 | 0.00 | 94 | 1013.6 |
| 20260507080543 | 42 | 24 | 0.0 | 1.7 | 0.00 | 0.00 | 0.00 | 94 | 1013.6 |
| 20260507080043 | 42 | 0 | 0.0 | 0.0 | 0.00 | 0.00 | 0.00 | 94 | 1013.6 |
| 20260507075542 | 41 | 0 | 0.0 | 0.0 | 0.00 | 0.00 | 0.00 | 94 | 1013.6 |
| 20260507075041 | 41 | 356 | 0.0 | 0.9 | 0.00 | 0.00 | 0.00 | 94 | 1013.6 |
| 20260507074541 | 41 | 14 | 0.9 | 2.6 | 0.00 | 0.00 | 0.00 | 94 | 1013.6 |
| 20260507074041 | 42 | 20 | 0.0 | 1.7 | 0.00 | 0.00 | 0.00 | 94 | 1013.6 |
| 20260507073540 | 42 | 0 | 0.0 | 0.0 | 0.00 | 0.00 | 0.00 | 94 | 1013.6 |
| 20260507072539 | 42 | 0 | 0.0 | 0.0 | 0.00 | 0.00 | 0.00 | 94 | 1013.6 |
| 20260507072039 | 43 | 0 | 0.0 | 0.0 | 0.00 | 0.00 | 0.00 | 94 | 1013.6 |
| 20260507071538 | 43 | 0 | 0.0 | 0.0 | 0.00 | 0.00 | 0.00 | 93 | 1013.7 |
| 20260507071037 | 43 | 0 | 0.0 | 0.0 | 0.00 | 0.00 | 0.00 | 94 | 1013.6 |
| 20260507070537 | 43 | 0 | 0.0 | 0.0 | 0.00 | 0.00 | 0.00 | 93 | 1013.6 |
| 20260507070036 | 43 | 0 | 0.0 | 0.0 | 0.00 | 0.00 | 0.00 | 93 | 1013.7 |
| 20260507065536 | 43 | 0 | 0.0 | 0.0 | 0.00 | 0.00 | 0.00 | 93 | 1013.7 |
| 20260507065036 | 44 | 0 | 0.0 | 0.0 | 0.00 | 0.00 | 0.00 | 93 | 1013.7 |
| 20260507064536 | 44 | 0 | 0.0 | 0.0 | 0.00 | 0.00 | 0.00 | 93 | 1013.8 |
| 20260507064035 | 44 | 0 | 0.0 | 0.0 | 0.00 | 0.00 | 0.00 | 93 | 1013.8 |
| 20260507063534 | 44 | 0 | 0.0 | 0.0 | 0.00 | 0.00 | 0.00 | 93 | 1013.8 |
| 20260507063034 | 44 | 0 | 0.0 | 0.0 | 0.00 | 0.00 | 0.00 | 93 | 1013.8 |
| 20260507062531 | 44 | 0 | 0.0 | 0.0 | 0.00 | 0.00 | 0.00 | 93 | 1013.7 |
| 20260507062030 | 45 | 0 | 0.0 | 0.0 | 0.00 | 0.00 | 0.00 | 93 | 1013.8 |
| 20260507061028 | 45 | 0 | 0.0 | 0.0 | 0.00 | 0.00 | 0.00 | 92 | 1013.8 |
| 20260507060527 | 45 | 0 | 0.0 | 0.0 | 0.00 | 0.00 | 0.00 | 92 | 1013.8 |
| 20260507060027 | 45 | 0 | 0.0 | 0.0 | 0.00 | 0.00 | 0.00 | 92 | 1013.8 |
| 20260507055527 | 45 | 0 | 0.0 | 0.0 | 0.00 | 0.00 | 0.00 | 92 | 1013.8 |
| 20260507055027 | 45 | 0 | 0.0 | 0.0 | 0.00 | 0.00 | 0.00 | 92 | 1013.8 |
| 20260507054526 | 45 | 0 | 0.0 | 0.0 | 0.00 | 0.00 | 0.00 | 92 | 1013.9 |
| 20260507054026 | 45 | 0 | 0.0 | 0.0 | 0.00 | 0.00 | 0.00 | 92 | 1013.9 |
| 20260507053525 | 45 | 0 | 0.0 | 0.0 | 0.00 | 0.00 | 0.00 | 92 | 1013.8 |
| 20260507053024 | 45 | 0 | 0.0 | 0.0 | 0.00 | 0.00 | 0.00 | 91 | 1013.8 |
| 20260507052524 | 46 | 0 | 0.0 | 0.0 | 0.00 | 0.00 | 0.00 | 91 | 1013.8 |
| 20260507052024 | 46 | 0 | 0.0 | 0.0 | 0.00 | 0.00 | 0.00 | 91 | 1013.9 |
| 20260507051523 | 46 | 0 | 0.0 | 0.0 | 0.00 | 0.00 | 0.00 | 91 | 1014.0 |
| 20260507051023 | 46 | 0 | 0.0 | 0.0 | 0.00 | 0.00 | 0.00 | 91 | 1014.0 |
| 20260507050523 | 46 | 0 | 0.0 | 0.0 | 0.00 | 0.00 | 0.00 | 91 | 1014.1 |
| 20260507050023 | 46 | 0 | 0.0 | 0.0 | 0.00 | 0.00 | 0.00 | 91 | 1014.1 |
| 20260507045521 | 46 | 0 | 0.0 | 0.0 | 0.00 | 0.00 | 0.00 | 91 | 1014.1 |
| 20260507045021 | 46 | 38 | 0.0 | 1.7 | 0.00 | 0.00 | 0.00 | 91 | 1014.0 |
| 20260507044520 | 46 | 17 | 0.9 | 2.6 | 0.00 | 0.00 | 0.00 | 91 | 1013.9 |
| 20260507044020 | 46 | 323 | 0.9 | 1.7 | 0.00 | 0.00 | 0.00 | 91 | 1013.9 |
| 20260507043519 | 46 | 10 | 0.9 | 1.7 | 0.00 | 0.00 | 0.00 | 91 | 1013.8 |
| 20260507043018 | 46 | 0 | 0.0 | 0.0 | 0.00 | 0.00 | 0.00 | 91 | 1013.9 |
| 20260507042518 | 47 | 8 | 0.9 | 1.7 | 0.00 | 0.00 | 0.00 | 91 | 1013.9 |
| 20260507042018 | 47 | 10 | 1.7 | 1.7 | 0.00 | 0.00 | 0.00 | 91 | 1013.9 |
| 20260507041518 | 47 | 13 | 0.9 | 1.7 | 0.00 | 0.00 | 0.00 | 91 | 1013.8 |
| 20260507041017 | 47 | 7 | 0.9 | 1.7 | 0.00 | 0.00 | 0.00 | 91 | 1013.8 |
| 20260507040517 | 46 | 4 | 1.7 | 2.6 | 0.00 | 0.00 | 0.00 | 91 | 1013.7 |
| 20260507040017 | 46 | 14 | 0.9 | 1.7 | 0.00 | 0.00 | 0.47 | 90 | 1013.8 |
| 20260507035517 | 47 | 11 | 0.9 | 1.7 | 0.00 | 0.00 | 0.47 | 90 | 1013.8 |
| 20260507034516 | 47 | 11 | 1.7 | 1.7 | 0.00 | 0.00 | 0.47 | 89 | 1013.8 |
| 20260507034016 | 47 | 13 | 1.7 | 2.6 | 0.00 | 0.00 | 0.47 | 89 | 1013.7 |
| 20260507033014 | 47 | 14 | 0.9 | 2.6 | 0.00 | 0.00 | 0.47 | 88 | 1013.8 |
| 20260507032514 | 47 | 17 | 1.7 | 1.7 | 0.00 | 0.00 | 0.47 | 88 | 1013.8 |
| 20260507032017 | 47 | 10 | 0.9 | 2.6 | 0.00 | 0.00 | 0.47 | 88 | 1013.8 |
| 20260507031509 | 47 | 0 | 0.0 | 0.0 | 0.00 | 0.00 | 0.47 | 88 | 1013.8 |
| 20260507031009 | 48 | 0 | 0.0 | 0.0 | 0.00 | 0.00 | 0.47 | 87 | 1013.9 |
| 20260507030508 | 47 | 0 | 0.0 | 0.0 | 0.00 | 0.00 | 0.47 | 87 | 1013.9 |
| 20260507025506 | 48 | 0 | 0.0 | 0.0 | 0.00 | 0.00 | 0.47 | 86 | 1013.9 |
| 20260507025006 | 48 | 0 | 0.0 | 0.0 | 0.00 | 0.00 | 0.47 | 85 | 1013.9 |
| 20260507024505 | 48 | 15 | 0.9 | 1.7 | 0.00 | 0.00 | 0.47 | 85 | 1013.9 |
| 20260507023504 | 48 | 13 | 1.7 | 2.6 | 0.00 | 0.00 | 0.47 | 84 | 1013.9 |
| 20260507023004 | 49 | 7 | 0.9 | 1.7 | 0.00 | 0.00 | 0.47 | 84 | 1013.9 |
| 20260507022503 | 49 | 0 | 0.0 | 0.0 | 0.00 | 0.00 | 0.47 | 82 | 1013.9 |
| 20260507022003 | 49 | 24 | 0.0 | 0.9 | 0.00 | 0.00 | 0.47 | 81 | 1013.9 |
| 20260507021503 | 49 | 24 | 0.0 | 0.0 | 0.00 | 0.00 | 0.47 | 80 | 1013.8 |
| 20260507021002 | 50 | 0 | 0.0 | 0.0 | 0.00 | 0.00 | 0.47 | 79 | 1013.7 |
| 20260507020501 | 50 | 0 | 0.0 | 0.0 | 0.00 | 0.00 | 0.47 | 78 | 1013.6 |
| 20260507020000 | 50 | 0 | 0.0 | 0.0 | 0.00 | 0.00 | 0.47 | 78 | 1013.6 |
| 20260507015500 | 50 | 0 | 0.0 | 0.0 | 0.00 | 0.00 | 0.47 | 77 | 1013.5 |
| 20260507014959 | 50 | 0 | 0.0 | 0.0 | 0.00 | 0.00 | 0.47 | 77 | 1013.5 |
| 20260507014458 | 50 | 304 | 0.0 | 1.7 | 0.00 | 0.00 | 0.47 | 78 | 1013.4 |
| 20260507013958 | 50 | 347 | 0.0 | 1.7 | 0.00 | 0.00 | 0.47 | 79 | 1013.4 |
| 20260507013458 | 50 | 332 | 0.0 | 0.0 | 0.00 | 0.00 | 0.47 | 80 | 1013.3 |
| 20260507012957 | 50 | 180 | 0.0 | 2.6 | 0.00 | 0.00 | 0.47 | 80 | 1013.2 |
| 20260507012456 | 50 | 0 | 0.0 | 0.0 | 0.00 | 0.00 | 0.47 | 79 | 1013.2 |
| 20260507011956 | 51 | 0 | 0.0 | 0.0 | 0.00 | 0.00 | 0.47 | 78 | 1013.3 |
| 20260507011456 | 51 | 0 | 0.0 | 0.0 | 0.00 | 0.00 | 0.47 | 76 | 1013.2 |
| 20260507010954 | 51 | 0 | 0.0 | 0.0 | 0.00 | 0.00 | 0.47 | 75 | 1013.3 |
| 20260507010453 | 51 | 0 | 0.0 | 0.0 | 0.00 | 0.00 | 0.47 | 73 | 1013.2 |
| 20260507005453 | 52 | 0 | 0.0 | 0.0 | 0.00 | 0.00 | 0.47 | 69 | 1013.3 |
| 20260507004953 | 53 | 0 | 0.0 | 0.0 | 0.00 | 0.00 | 0.47 | 66 | 1013.2 |
| 20260507004452 | 54 | 0 | 0.0 | 0.0 | 0.00 | 0.00 | 0.47 | 64 | 1013.1 |
| 20260507003952 | 54 | 0 | 0.0 | 0.0 | 0.00 | 0.00 | 0.47 | 62 | 1013.1 |
| 20260507003451 | 55 | 304 | 0.0 | 0.9 | 0.00 | 0.00 | 0.47 | 60 | 1013.0 |
| 20260507002951 | 55 | 283 | 0.9 | 2.6 | 0.00 | 0.00 | 0.47 | 59 | 1013.0 |
| 20260507002451 | 55 | 264 | 0.9 | 2.6 | 0.00 | 0.00 | 0.47 | 59 | 1012.9 |
| 20260507001952 | 55 | 297 | 1.7 | 3.5 | 0.00 | 0.00 | 0.47 | 59 | 1012.8 |
| 20260507001448 | 55 | 295 | 0.9 | 3.5 | 0.00 | 0.00 | 0.47 | 61 | 1012.8 |
| 20260507000948 | 56 | 0 | 0.0 | 0.0 | 0.00 | 0.00 | 0.47 | 60 | 1012.6 |
| 20260507000444 | 56 | 17 | 0.0 | 3.5 | 0.00 | 0.00 | 0.47 | 59 | 1012.6 |
| 20260506235944 | 56 | 8 | 0.0 | 0.9 | 0.00 | 0.00 | 0.47 | 59 | 1012.5 |
| 20260506235444 | 56 | 359 | 0.9 | 3.5 | 0.00 | 0.00 | 0.47 | 58 | 1012.6 |
| 20260506234944 | 56 | 311 | 2.6 | 5.2 | 0.00 | 0.00 | 0.47 | 56 | 1012.8 |
| 20260506234443 | 56 | 339 | 2.6 | 4.3 | 0.00 | 0.00 | 0.47 | 56 | 1012.6 |
| 20260506233943 | 56 | 325 | 0.9 | 4.3 | 0.00 | 0.00 | 0.47 | 58 | 1012.5 |
| 20260506233443 | 56 | 338 | 1.7 | 5.2 | 0.00 | 0.00 | 0.47 | 57 | 1012.5 |
| 20260506232943 | 56 | 290 | 2.6 | 6.1 | 0.00 | 0.00 | 0.47 | 57 | 1012.4 |
| 20260506232440 | 57 | 338 | 1.7 | 7.0 | 0.00 | 0.00 | 0.47 | 57 | 1012.4 |
| 20260506231941 | 57 | 319 | 2.6 | 6.1 | 0.00 | 0.00 | 0.47 | 56 | 1012.4 |
| 20260506231439 | 57 | 359 | 1.7 | 4.3 | 0.00 | 0.00 | 0.47 | 54 | 1012.4 |
| 20260506230438 | 57 | 315 | 3.5 | 5.2 | 0.00 | 0.00 | 0.47 | 56 | 1012.6 |
| 20260506225938 | 57 | 329 | 2.6 | 6.1 | 0.00 | 0.00 | 0.47 | 55 | 1012.5 |
| 20260506224937 | 57 | 335 | 2.6 | 5.2 | 0.00 | 0.00 | 0.47 | 57 | 1012.5 |
| 20260506224437 | 57 | 305 | 0.9 | 3.5 | 0.00 | 0.00 | 0.47 | 57 | 1012.6 |
| 20260506223936 | 57 | 333 | 1.7 | 5.2 | 0.00 | 0.00 | 0.47 | 57 | 1012.8 |
| 20260506223436 | 57 | 338 | 2.6 | 6.1 | 0.00 | 0.00 | 0.47 | 54 | 1012.8 |
| 20260506222940 | 57 | 343 | 2.6 | 6.1 | 0.00 | 0.00 | 0.47 | 55 | 1012.8 |
| 20260506222434 | 57 | 307 | 2.6 | 5.2 | 0.00 | 0.00 | 0.47 | 54 | 1012.9 |
| 20260506221934 | 57 | 335 | 2.6 | 7.8 | 0.00 | 0.00 | 0.47 | 52 | 1012.9 |
| 20260506221433 | 57 | 328 | 1.7 | 5.2 | 0.00 | 0.00 | 0.47 | 55 | 1012.9 |
| 20260506220933 | 57 | 300 | 2.6 | 5.2 | 0.00 | 0.00 | 0.47 | 51 | 1013.0 |
| 20260506220434 | 57 | 322 | 3.5 | 7.0 | 0.00 | 0.00 | 0.47 | 51 | 1013.0 |
| 20260506215933 | 58 | 312 | 2.6 | 7.0 | 0.00 | 0.00 | 0.47 | 52 | 1013.0 |
| 20260506215432 | 58 | 255 | 2.6 | 7.0 | 0.00 | 0.00 | 0.47 | 51 | 1013.0 |
| 20260506214932 | 58 | 326 | 1.7 | 4.3 | 0.00 | 0.00 | 0.47 | 54 | 1012.9 |
| 20260506214428 | 58 | 332 | 2.6 | 5.2 | 0.00 | 0.00 | 0.47 | 53 | 1012.8 |
| 20260506213928 | 58 | 322 | 2.6 | 4.3 | 0.00 | 0.00 | 0.47 | 52 | 1012.9 |
| 20260506213428 | 58 | 326 | 3.5 | 6.1 | 0.00 | 0.00 | 0.47 | 52 | 1012.8 |
| 20260506212927 | 58 | 315 | 3.5 | 7.8 | 0.00 | 0.00 | 0.47 | 53 | 1012.8 |
| 20260506212427 | 58 | 345 | 3.5 | 7.0 | 0.00 | 0.00 | 0.47 | 50 | 1012.5 |
| 20260506211926 | 58 | 326 | 3.5 | 7.8 | 0.00 | 0.00 | 0.47 | 50 | 1012.4 |
| 20260506211426 | 58 | 339 | 2.6 | 6.1 | 0.00 | 0.00 | 0.47 | 49 | 1012.4 |
| 20260506210925 | 58 | 350 | 2.6 | 4.3 | 0.00 | 0.00 | 0.47 | 52 | 1012.4 |
| 20260506210424 | 57 | 318 | 1.7 | 7.0 | 0.00 | 0.00 | 0.47 | 51 | 1012.3 |
| 20260506205924 | 57 | 321 | 1.7 | 4.3 | 0.00 | 0.00 | 0.47 | 54 | 1012.3 |
| 20260506205424 | 57 | 284 | 3.5 | 5.2 | 0.00 | 0.00 | 0.47 | 51 | 1012.4 |
| 20260506204924 | 57 | 17 | 3.5 | 7.0 | 0.00 | 0.00 | 0.47 | 53 | 1012.2 |
| 20260506204422 | 57 | 321 | 3.5 | 7.0 | 0.00 | 0.00 | 0.47 | 54 | 1012.4 |
| 20260506203922 | 57 | 308 | 2.6 | 7.0 | 0.00 | 0.00 | 0.47 | 50 | 1012.4 |
| 20260506203421 | 57 | 316 | 3.5 | 7.0 | 0.00 | 0.00 | 0.47 | 53 | 1012.4 |
| 20260506202921 | 57 | 343 | 3.5 | 7.0 | 0.00 | 0.00 | 0.47 | 52 | 1012.4 |
| 20260506202421 | 58 | 293 | 3.5 | 7.0 | 0.00 | 0.00 | 0.47 | 52 | 1012.4 |
| 20260506201921 | 57 | 328 | 3.5 | 6.1 | 0.00 | 0.00 | 0.47 | 52 | 1012.3 |
| 20260506201420 | 58 | 339 | 2.6 | 4.3 | 0.00 | 0.00 | 0.47 | 53 | 1012.4 |
| 20260506200920 | 58 | 336 | 2.6 | 6.1 | 0.00 | 0.00 | 0.47 | 52 | 1012.3 |
| 20260506200421 | 58 | 330 | 3.5 | 7.8 | 0.00 | 0.00 | 0.47 | 52 | 1012.4 |
| 20260506195920 | 58 | 321 | 4.3 | 7.8 | 0.00 | 0.00 | 0.47 | 53 | 1012.3 |
| 20260506195419 | 58 | 330 | 4.3 | 7.0 | 0.00 | 0.00 | 0.47 | 52 | 1012.3 |
| 20260506195402 | 58 | 322 | 4.3 | 7.8 | 0.00 | 0.00 | 0.47 | 52 | 1012.3 |
| 20260506194919 | 58 | 322 | 4.3 | 7.8 | 0.00 | 0.00 | 0.47 | 52 | 1012.3 |
| 20260506194419 | 59 | 329 | 4.3 | 7.8 | 0.00 | 0.00 | 0.47 | 54 | 1012.3 |
| 20260506193919 | 59 | 326 | 3.5 | 8.7 | 0.00 | 0.00 | 0.47 | 53 | 1012.2 |
| 20260506193419 | 58 | 290 | 3.5 | 9.6 | 0.00 | 0.00 | 0.47 | 53 | 1012.1 |
| 20260506192918 | 58 | 28 | 4.3 | 8.7 | 0.00 | 0.00 | 0.47 | 52 | 1012.0 |
| 20260506192418 | 58 | 17 | 3.5 | 7.8 | 0.00 | 0.00 | 0.47 | 51 | 1012.1 |
| 20260506191918 | 58 | 25 | 5.2 | 10.4 | 0.00 | 0.00 | 0.47 | 51 | 1012.2 |
| 20260506191418 | 59 | 312 | 4.3 | 10.4 | 0.00 | 0.00 | 0.47 | 49 | 1012.1 |
| 20260506190917 | 59 | 319 | 4.3 | 7.0 | 0.00 | 0.00 | 0.47 | 48 | 1012.1 |
| 20260506190417 | 59 | 318 | 5.2 | 9.6 | 0.00 | 0.00 | 0.47 | 52 | 1012.1 |
| 20260506185918 | 59 | 314 | 4.3 | 8.7 | 0.00 | 0.00 | 0.47 | 54 | 1012.2 |
| 20260506185417 | 58 | 311 | 4.3 | 10.4 | 0.00 | 0.00 | 0.47 | 52 | 1012.1 |
| 20260506184916 | 58 | 309 | 3.5 | 6.1 | 0.00 | 0.00 | 0.47 | 50 | 1012.0 |
| 20260506184414 | 58 | 39 | 4.3 | 8.7 | 0.00 | 0.00 | 0.47 | 48 | 1012.0 |
| 20260506183913 | 59 | 326 | 4.3 | 7.8 | 0.00 | 0.00 | 0.47 | 51 | 1012.0 |
| 20260506183411 | 59 | 319 | 4.3 | 9.6 | 0.00 | 0.00 | 0.47 | 52 | 1011.9 |
| 20260506182911 | 59 | 14 | 4.3 | 7.8 | 0.00 | 0.00 | 0.47 | 52 | 1011.9 |
| 20260506182406 | 59 | 308 | 4.3 | 10.4 | 0.00 | 0.00 | 0.47 | 52 | 1012.1 |
| 20260506181906 | 59 | 280 | 4.3 | 7.8 | 0.00 | 0.00 | 0.47 | 51 | 1012.0 |
| 20260506181406 | 59 | 294 | 4.3 | 9.6 | 0.00 | 0.00 | 0.47 | 50 | 1012.0 |
| 20260506180906 | 59 | 31 | 6.1 | 10.4 | 0.00 | 0.00 | 0.47 | 54 | 1011.9 |
| 20260506180405 | 59 | 323 | 5.2 | 8.7 | 0.00 | 0.00 | 0.47 | 50 | 1012.0 |
| 20260506175905 | 59 | 323 | 4.3 | 7.8 | 0.00 | 0.00 | 0.47 | 57 | 1012.2 |
| 20260506175405 | 60 | 58 | 4.3 | 8.7 | 0.00 | 0.00 | 0.47 | 52 | 1012.3 |
| 20260506174905 | 60 | 349 | 3.5 | 7.0 | 0.00 | 0.00 | 0.47 | 59 | 1012.3 |
| 20260506174405 | 59 | 1 | 4.3 | 9.6 | 0.00 | 0.00 | 0.47 | 56 | 1012.4 |
| 20260506173904 | 59 | 316 | 3.5 | 7.0 | 0.00 | 0.00 | 0.47 | 57 | 1012.3 |
| 20260506173404 | 58 | 311 | 3.5 | 7.8 | 0.00 | 0.00 | 0.47 | 53 | 1012.2 |
| 20260506172904 | 58 | 11 | 4.3 | 8.7 | 0.00 | 0.00 | 0.47 | 56 | 1012.3 |
| 20260506172553 | 58 | 328 | 3.5 | 10.4 | 0.00 | 0.00 | 0.47 | 56 | 1012.4 |
| 20260506172404 | 58 | 328 | 3.5 | 10.4 | 0.00 | 0.00 | 0.47 | 56 | 1012.4 |
| 20260506171903 | 58 | 32 | 4.3 | 9.6 | 0.00 | 0.00 | 0.47 | 51 | 1012.5 |
| 20260506171403 | 58 | 7 | 5.2 | 9.6 | 0.00 | 0.00 | 0.47 | 60 | 1012.4 |
| 20260506170903 | 58 | 46 | 4.3 | 8.7 | 0.00 | 0.00 | 0.47 | 58 | 1012.4 |
| 20260506170403 | 57 | 25 | 3.5 | 7.8 | 0.00 | 0.00 | 0.47 | 54 | 1012.5 |
| 20260506165902 | 57 | 38 | 5.2 | 8.7 | 0.00 | 0.00 | 0.47 | 55 | 1012.6 |
| 20260506165402 | 57 | 35 | 4.3 | 8.7 | 0.00 | 0.00 | 0.47 | 56 | 1012.6 |
| 20260506164902 | 57 | 283 | 3.5 | 7.8 | 0.00 | 0.00 | 0.47 | 61 | 1012.6 |
| 20260506164402 | 57 | 321 | 2.6 | 7.0 | 0.00 | 0.00 | 0.47 | 58 | 1012.5 |
| 20260506163901 | 57 | 336 | 2.6 | 7.0 | 0.00 | 0.00 | 0.47 | 61 | 1012.6 |
| 20260506163534 | 57 | 329 | 3.5 | 7.8 | 0.00 | 0.00 | 0.47 | 58 | 1012.5 |
| 20260506163401 | 57 | 329 | 3.5 | 7.8 | 0.00 | 0.00 | 0.47 | 58 | 1012.5 |
| 20260506162901 | 56 | 28 | 3.5 | 7.8 | 0.00 | 0.00 | 0.47 | 56 | 1012.5 |
| 20260506162401 | 56 | 318 | 4.3 | 8.7 | 0.00 | 0.00 | 0.47 | 58 | 1012.5 |
| 20260506161902 | 56 | 333 | 3.5 | 7.8 | 0.00 | 0.00 | 0.47 | 58 | 1012.4 |
| 20260506161359 | 56 | 302 | 4.3 | 7.0 | 0.00 | 0.00 | 0.47 | 59 | 1012.3 |
| 20260506160858 | 56 | 314 | 3.5 | 8.7 | 0.00 | 0.00 | 0.47 | 58 | 1012.4 |
| 20260506160358 | 55 | 304 | 4.3 | 7.8 | 0.00 | 0.00 | 0.47 | 65 | 1012.4 |
| 20260506155858 | 55 | 311 | 2.6 | 7.8 | 0.00 | 0.00 | 0.47 | 63 | 1012.3 |
| 20260506155358 | 55 | 301 | 3.5 | 7.8 | 0.00 | 0.00 | 0.47 | 65 | 1012.3 |
| 20260506154857 | 55 | 28 | 4.3 | 7.0 | 0.00 | 0.00 | 0.47 | 62 | 1012.3 |
| 20260506154357 | 55 | 44 | 4.3 | 7.0 | 0.00 | 0.00 | 0.47 | 63 | 1012.6 |
| 20260506153854 | 54 | 4 | 4.3 | 7.0 | 0.00 | 0.00 | 0.47 | 65 | 1012.8 |
| 20260506153354 | 55 | 23 | 2.6 | 6.1 | 0.00 | 0.00 | 0.47 | 66 | 1012.6 |
| 20260506152854 | 54 | 343 | 3.5 | 7.8 | 0.00 | 0.00 | 0.47 | 66 | 1012.6 |
| 20260506152354 | 54 | 309 | 4.3 | 8.7 | 0.00 | 0.00 | 0.47 | 64 | 1012.5 |
| 20260506151853 | 54 | 32 | 2.6 | 5.2 | 0.00 | 0.00 | 0.47 | 68 | 1012.3 |
| 20260506151516 | 54 | 323 | 4.3 | 7.8 | 0.00 | 0.00 | 0.47 | 66 | 1012.1 |
| 20260506151353 | 54 | 323 | 4.3 | 7.8 | 0.00 | 0.00 | 0.47 | 66 | 1012.1 |
| 20260506150853 | 54 | 318 | 4.3 | 7.8 | 0.00 | 0.00 | 0.47 | 65 | 1012.0 |
| 20260506150353 | 53 | 315 | 4.3 | 7.0 | 0.00 | 0.00 | 0.47 | 66 | 1011.9 |
| 20260506145852 | 53 | 17 | 5.2 | 9.6 | 0.00 | 0.00 | 0.47 | 68 | 1011.6 |
| 20260506145352 | 53 | 30 | 4.3 | 8.7 | 0.00 | 0.00 | 0.47 | 70 | 1011.6 |
| 20260506144850 | 53 | 328 | 4.3 | 12.2 | 0.00 | 0.00 | 0.46 | 70 | 1011.6 |
| 20260506144350 | 53 | 69 | 3.5 | 8.7 | 0.00 | 0.00 | 0.46 | 70 | 1011.5 |
| 20260506143850 | 53 | 55 | 2.6 | 7.0 | 0.00 | 0.00 | 0.46 | 71 | 1011.4 |
| 20260506143349 | 52 | 311 | 4.3 | 8.7 | 0.00 | 0.00 | 0.46 | 69 | 1011.3 |
| 20260506142851 | 52 | 27 | 3.5 | 8.7 | 0.00 | 0.00 | 0.46 | 71 | 1011.4 |
| 20260506142349 | 52 | 305 | 2.6 | 6.1 | 0.00 | 0.00 | 0.46 | 76 | 1011.6 |
| 20260506141849 | 51 | 332 | 3.5 | 7.0 | 0.00 | 0.00 | 0.46 | 75 | 1011.4 |
| 20260506141349 | 50 | 325 | 3.5 | 7.8 | 0.00 | 0.00 | 0.46 | 76 | 1011.3 |
| 20260506140848 | 50 | 333 | 4.3 | 8.7 | 0.00 | 0.00 | 0.46 | 72 | 1011.2 |
| 20260506140346 | 50 | 333 | 5.2 | 9.6 | 0.00 | 0.00 | 0.46 | 76 | 1011.3 |
| 20260506135846 | 50 | 340 | 4.3 | 10.4 | 0.00 | 0.00 | 0.46 | 76 | 1011.2 |
| 20260506135345 | 50 | 333 | 3.5 | 7.8 | 0.00 | 0.00 | 0.46 | 80 | 1011.3 |
| 20260506134845 | 50 | 338 | 3.5 | 7.8 | 0.00 | 0.00 | 0.46 | 81 | 1011.5 |
| 20260506134345 | 49 | 342 | 0.9 | 4.3 | 0.00 | 0.00 | 0.46 | 82 | 1011.6 |
| 20260506133845 | 49 | 312 | 2.6 | 7.0 | 0.00 | 0.00 | 0.46 | 83 | 1011.4 |
| 20260506133344 | 49 | 301 | 2.6 | 6.1 | 0.00 | 0.00 | 0.46 | 82 | 1011.3 |
| 20260506132844 | 49 | 336 | 0.9 | 5.2 | 0.00 | 0.00 | 0.46 | 85 | 1011.1 |
| 20260506132343 | 48 | 359 | 0.9 | 5.2 | 0.00 | 0.00 | 0.46 | 85 | 1011.0 |
| 20260506131843 | 48 | 323 | 1.7 | 7.0 | 0.00 | 0.00 | 0.46 | 85 | 1011.0 |
| 20260506131342 | 48 | 329 | 2.6 | 6.1 | 0.00 | 0.00 | 0.46 | 83 | 1011.1 |
| 20260506130841 | 48 | 330 | 0.9 | 5.2 | 0.00 | 0.00 | 0.46 | 84 | 1011.1 |
| 20260506130341 | 48 | 338 | 2.6 | 6.1 | 0.00 | 0.00 | 0.46 | 84 | 1010.8 |
| 20260506125841 | 48 | 335 | 0.9 | 6.1 | 0.00 | 0.00 | 0.46 | 86 | 1010.8 |
| 20260506125341 | 48 | 332 | 2.6 | 7.8 | 0.00 | 0.00 | 0.46 | 85 | 1010.8 |
| 20260506124840 | 47 | 349 | 0.0 | 4.3 | 0.00 | 0.00 | 0.46 | 86 | 1010.7 |
| 20260506124341 | 47 | 318 | 0.0 | 4.3 | 0.00 | 0.00 | 0.46 | 86 | 1010.6 |
| 20260506123840 | 47 | 339 | 0.9 | 6.1 | 0.00 | 0.00 | 0.46 | 87 | 1010.4 |
| 20260506123340 | 47 | 6 | 1.7 | 7.8 | 0.00 | 0.00 | 0.46 | 86 | 1010.5 |
| 20260506122839 | 46 | 318 | 2.6 | 9.6 | 0.00 | 0.00 | 0.46 | 87 | 1010.5 |
| 20260506122339 | 47 | 319 | 2.6 | 7.8 | 0.00 | 0.00 | 0.46 | 88 | 1010.5 |
| 20260506121839 | 46 | 330 | 4.3 | 8.7 | 0.00 | 0.00 | 0.46 | 87 | 1010.5 |
| 20260506121339 | 46 | 343 | 2.6 | 7.0 | 0.00 | 0.00 | 0.46 | 88 | 1010.3 |
| 20260506120839 | 46 | 31 | 2.6 | 6.1 | 0.00 | 0.00 | 0.46 | 88 | 1010.4 |
| 20260506120338 | 46 | 332 | 4.3 | 7.0 | 0.00 | 0.00 | 0.46 | 88 | 1010.1 |
| 20260506115838 | 46 | 330 | 0.9 | 5.2 | 0.00 | 0.00 | 0.46 | 89 | 1010.1 |
| 20260506115338 | 46 | 316 | 1.7 | 4.3 | 0.00 | 0.00 | 0.46 | 90 | 1010.0 |
| 20260506114838 | 46 | 323 | 2.6 | 6.1 | 0.00 | 0.00 | 0.46 | 89 | 1009.7 |
| 20260506114337 | 46 | 316 | 2.6 | 6.1 | 0.00 | 0.00 | 0.46 | 89 | 1009.5 |
| 20260506113837 | 46 | 328 | 2.6 | 7.0 | 0.00 | 0.00 | 0.46 | 90 | 1009.3 |
| 20260506113337 | 46 | 314 | 1.7 | 6.1 | 0.00 | 0.00 | 0.46 | 90 | 1009.0 |
| 20260506112335 | 45 | 311 | 3.5 | 8.7 | 0.00 | 0.00 | 0.46 | 90 | 1009.1 |
| 20260506111835 | 45 | 307 | 3.5 | 9.6 | 0.00 | 0.00 | 0.46 | 91 | 1009.0 |
| 20260506111334 | 45 | 323 | 3.5 | 7.8 | 0.00 | 0.00 | 0.46 | 91 | 1009.2 |
| 20260506110834 | 45 | 333 | 3.5 | 6.1 | 0.00 | 0.00 | 0.46 | 92 | 1009.4 |
| 20260506110333 | 45 | 333 | 2.6 | 7.0 | 0.00 | 0.00 | 0.46 | 93 | 1009.3 |
| 20260506105833 | 45 | 332 | 2.6 | 7.0 | 0.00 | 0.00 | 0.46 | 93 | 1009.1 |
| 20260506105333 | 45 | 318 | 2.6 | 7.0 | 0.00 | 0.00 | 0.46 | 93 | 1008.8 |
| 20260506104833 | 45 | 335 | 0.9 | 5.2 | 0.00 | 0.00 | 0.46 | 93 | 1008.8 |
| 20260506104331 | 45 | 322 | 0.0 | 1.7 | 0.00 | 0.00 | 0.46 | 93 | 1009.0 |
| 20260506103830 | 45 | 255 | 0.0 | 1.7 | 0.00 | 0.00 | 0.46 | 94 | 1009.2 |
| 20260506103330 | 45 | 322 | 0.0 | 1.7 | 0.00 | 0.00 | 0.46 | 94 | 1009.1 |
| 20260506102830 | 45 | 322 | 2.6 | 6.1 | 0.00 | 0.00 | 0.46 | 93 | 1008.4 |
| 20260506102328 | 45 | 329 | 1.7 | 7.0 | 0.00 | 0.00 | 0.46 | 93 | 1008.1 |
| 20260506101829 | 46 | 308 | 0.9 | 4.3 | 0.00 | 0.00 | 0.46 | 94 | 1008.3 |
| 20260506101327 | 46 | 332 | 1.7 | 6.1 | 0.00 | 0.00 | 0.46 | 94 | 1008.0 |
| 20260506100829 | 46 | 307 | 1.7 | 6.1 | 0.00 | 0.00 | 0.46 | 94 | 1008.0 |
| 20260506100325 | 46 | 311 | 1.7 | 6.1 | 0.00 | 0.00 | 0.46 | 94 | 1008.2 |
| 20260506095826 | 46 | 308 | 1.7 | 5.2 | 0.00 | 0.00 | 0.46 | 94 | 1008.4 |
| 20260506095325 | 46 | 350 | 0.9 | 3.5 | 0.00 | 0.00 | 0.46 | 94 | 1008.3 |
| 20260506094824 | 46 | 302 | 0.9 | 5.2 | 0.00 | 0.00 | 0.46 | 94 | 1008.2 |
| 20260506094324 | 46 | 0 | 0.0 | 0.0 | 0.00 | 0.00 | 0.46 | 94 | 1008.1 |
| 20260506093824 | 46 | 322 | 0.0 | 1.7 | 0.00 | 0.00 | 0.46 | 94 | 1007.9 |
| 20260506093324 | 46 | 342 | 0.9 | 3.5 | 0.00 | 0.00 | 0.46 | 94 | 1007.8 |
| 20260506092820 | 45 | 14 | 3.5 | 7.0 | 0.00 | 0.00 | 0.46 | 94 | 1007.8 |
| 20260506092316 | 46 | 32 | 0.9 | 2.6 | 0.00 | 0.00 | 0.46 | 94 | 1007.4 |
| 20260506091816 | 46 | 34 | 2.6 | 6.1 | 0.00 | 0.00 | 0.46 | 94 | 1007.4 |
| 20260506091315 | 46 | 28 | 1.7 | 6.1 | 0.00 | 0.00 | 0.46 | 94 | 1007.5 |
| 20260506090815 | 46 | 32 | 0.0 | 2.6 | 0.00 | 0.00 | 0.46 | 94 | 1007.4 |
| 20260506090315 | 46 | 359 | 1.7 | 7.8 | 0.00 | 0.00 | 0.46 | 94 | 1007.4 |
| 20260506085815 | 45 | 34 | 1.7 | 7.0 | 0.00 | 0.00 | 0.46 | 94 | 1007.5 |
| 20260506085311 | 45 | 49 | 2.6 | 6.1 | 0.00 | 0.00 | 0.46 | 94 | 1007.7 |
| 20260506084811 | 45 | 24 | 2.6 | 6.1 | 0.00 | 0.00 | 0.46 | 94 | 1007.6 |
| 20260506084312 | 46 | 347 | 2.6 | 7.0 | 0.00 | 0.00 | 0.46 | 94 | 1007.4 |